D8954 Weather Reports


Display with metric or nautical units.
time (UTC)temp
F
wind
direction
speed
MPH
gust
MPH
rain 1hr
in
rain 24hr
in
rain mn
in
humidity
%
barometer
mb
20260510185511 63 351 0.0 2.0 0.00 0.00 0.00 68 1005.2
20260510185012 63 351 0.0 2.0 0.00 0.00 0.00 66 1005.3
20260510184011 63 351 0.0 1.0 0.00 0.00 0.00 67 1005.2
20260510183512 63 351 0.0 2.0 0.00 0.00 0.00 66 1005.3
20260510182511 64 351 0.0 3.0 0.00 0.00 0.00 66 1005.3
20260510182012 64 30 0.0 3.0 0.00 0.00 0.00 67 1005.3
20260510181012 65 63 1.0 2.0 0.00 0.00 0.00 65 1005.3
20260510180512 66 64 0.0 2.0 0.00 0.00 0.00 64 1005.3
20260510175512 66 63 2.0 3.0 0.00 0.00 0.00 63 1005.4
20260510175011 67 83 1.0 6.0 0.00 0.00 0.00 63 1005.4
20260510174511 67 95 1.0 3.0 0.00 0.00 0.00 61 1005.5
20260510174012 67 88 2.0 3.0 0.00 0.00 0.00 61 1005.4
20260510173512 67 83 2.0 3.0 0.00 0.00 0.00 62 1005.4
20260510173011 68 89 2.0 5.0 0.00 0.00 0.00 61 1005.5
20260510172512 68 79 3.0 3.0 0.00 0.00 0.00 60 1005.5
20260510172013 68 55 2.0 5.0 0.00 0.00 0.00 60 1005.6
20260510171511 68 89 3.0 3.0 0.00 0.00 0.00 60 1005.6
20260510170011 69 17 1.0 3.0 0.00 0.00 0.00 60 1005.6
20260510165511 69 31 2.0 5.0 0.00 0.00 0.00 58 1005.7
20260510165011 69 69 2.0 8.0 0.00 0.00 0.00 58 1005.7
20260510164511 69 61 2.0 3.0 0.00 0.00 0.00 56 1005.7
20260510164012 69 69 2.0 3.0 0.00 0.00 0.00 58 1005.8
20260510163511 69 61 4.0 7.0 0.00 0.00 0.00 55 1005.7
20260510162512 70 78 3.0 7.0 0.00 0.00 0.00 56 1006.0
20260510162012 70 73 3.0 8.0 0.00 0.00 0.00 55 1006.0
20260510161511 70 95 5.0 10.0 0.00 0.00 0.00 54 1006.2
20260510161011 70 59 5.0 9.0 0.00 0.00 0.00 56 1006.3
20260510160511 70 69 4.0 8.0 0.00 0.00 0.00 56 1006.4
20260510160011 70 91 4.0 8.0 0.00 0.00 0.00 56 1006.5
20260510155511 70 57 4.0 8.0 0.00 0.00 0.00 55 1006.6
20260510155012 70 121 3.0 7.0 0.00 0.00 0.00 56 1006.7
20260510154512 70 89 6.0 9.0 0.00 0.00 0.00 54 1006.7
20260510153011 70 122 5.0 10.0 0.00 0.00 0.00 55 1006.9
20260510152512 71 88 3.0 7.0 0.00 0.00 0.00 54 1007.0
20260510152012 71 71 3.0 6.0 0.00 0.00 0.00 53 1007.0
20260510151512 71 63 5.0 9.0 0.00 0.00 0.00 53 1007.1
20260510151015 71 56 5.0 8.0 0.00 0.00 0.00 53 1007.1
20260510150512 71 65 4.0 7.0 0.00 0.00 0.00 53 1007.2
20260510150012 71 75 3.0 9.0 0.00 0.00 0.00 53 1007.2
20260510145011 71 60 5.0 9.0 0.00 0.00 0.00 55 1007.2
20260510143512 71 57 5.0 12.0 0.00 0.00 0.00 54 1007.4
20260510143011 72 137 3.0 8.0 0.00 0.00 0.00 53 1007.4
20260510142511 72 137 1.0 7.0 0.00 0.00 0.00 53 1007.4
20260510142012 72 188 5.0 10.0 0.00 0.00 0.00 49 1007.6
20260510141512 72 113 3.0 10.0 0.00 0.00 0.00 52 1007.8
20260510141012 72 129 3.0 7.0 0.00 0.00 0.00 51 1007.9
20260510140512 72 91 6.0 12.0 0.00 0.00 0.00 53 1008.0
20260510140012 71 171 5.0 12.0 0.00 0.00 0.00 55 1008.0
20260510135511 71 163 6.0 12.0 0.00 0.00 0.00 56 1008.0
20260510135012 71 198 3.0 13.0 0.00 0.00 0.00 56 1008.1
20260510134512 72 150 5.0 12.0 0.00 0.00 0.00 54 1008.1
20260510134012 72 152 3.0 12.0 0.00 0.00 0.00 55 1008.2
20260510133512 73 134 6.0 10.0 0.00 0.00 0.00 56 1008.2
20260510133012 72 104 7.0 14.0 0.00 0.00 0.00 56 1008.3
20260510132012 72 107 6.0 10.0 0.00 0.00 0.00 59 1008.4
20260510131012 71 52 5.0 8.0 0.00 0.00 0.00 57 1008.5
20260510130511 70 105 2.0 7.0 0.00 0.00 0.00 57 1008.6
20260510130012 71 111 5.0 14.0 0.00 0.00 0.00 58 1008.7
20260510125511 71 190 3.0 12.0 0.00 0.00 0.00 56 1008.7
20260510125011 72 106 6.0 13.0 0.00 0.00 0.00 57 1008.8
20260510124512 71 122 1.0 12.0 0.00 0.00 0.00 60 1008.8
20260510124012 71 155 6.0 10.0 0.00 0.00 0.00 57 1008.9
20260510123511 71 68 4.0 8.0 0.00 0.00 0.00 56 1008.9
20260510123012 71 42 4.0 9.0 0.00 0.00 0.00 58 1009.0
20260510122511 70 53 5.0 9.0 0.00 0.00 0.00 60 1009.1
20260510122015 69 53 2.0 7.0 0.00 0.00 0.00 59 1009.2
20260510121512 70 79 3.0 9.0 0.00 0.00 0.00 58 1009.2
20260510121012 70 60 3.0 8.0 0.00 0.00 0.00 58 1009.3
20260510120511 71 193 5.0 9.0 0.00 0.00 0.00 55 1009.3
20260510120012 71 79 5.0 12.0 0.00 0.00 0.00 57 1009.4
20260510115011 71 138 4.0 12.0 0.00 0.00 0.00 61 1009.5
20260510114514 70 99 3.0 8.0 0.00 0.00 0.00 60 1009.6
20260510114011 70 178 3.0 9.0 0.00 0.00 0.00 58 1009.7
20260510113511 70 133 6.0 12.0 0.00 0.00 0.00 61 1009.7
20260510113012 70 137 7.0 14.0 0.00 0.00 0.00 59 1009.8
20260510112511 70 157 5.0 12.0 0.00 0.00 0.00 60 1009.9
20260510111511 70 168 5.0 10.0 0.00 0.00 0.00 57 1010.1
20260510111011 69 120 4.0 8.0 0.00 0.00 0.00 60 1010.2
20260510110511 69 118 6.0 12.0 0.00 0.00 0.00 62 1010.2
20260510110011 68 159 3.0 10.0 0.00 0.00 0.00 62 1010.3
20260510105511 68 175 5.0 8.0 0.00 0.00 0.00 60 1010.3
20260510105012 69 139 4.0 10.0 0.00 0.00 0.00 59 1010.4
20260510104511 68 109 2.0 10.0 0.00 0.00 0.00 62 1010.4
20260510104012 68 116 4.0 8.0 0.00 0.00 0.00 62 1010.4
20260510103511 69 150 2.0 6.0 0.00 0.00 0.00 62 1010.5
20260510102511 67 172 3.0 10.0 0.00 0.00 0.00 63 1010.5
20260510102012 67 134 2.0 10.0 0.00 0.00 0.00 65 1010.5
20260510101511 67 116 4.0 8.0 0.00 0.00 0.00 64 1010.6
20260510101011 67 82 3.0 8.0 0.00 0.00 0.00 65 1010.6
20260510100514 67 146 0.0 3.0 0.00 0.00 0.00 66 1010.7
20260510100011 67 153 2.0 6.0 0.00 0.00 0.00 64 1010.7
20260510095511 66 94 3.0 7.0 0.00 0.00 0.00 65 1010.8
20260510095011 66 114 3.0 7.0 0.00 0.00 0.00 66 1010.8
20260510094511 66 119 3.0 7.0 0.00 0.00 0.00 68 1010.9
20260510094012 66 129 2.0 8.0 0.00 0.00 0.00 66 1011.0
20260510093511 65 58 2.0 5.0 0.00 0.00 0.00 68 1011.1
20260510093012 64 129 2.0 7.0 0.00 0.00 0.00 66 1011.1
20260510092511 65 124 3.0 7.0 0.00 0.00 0.00 68 1011.1
20260510092012 64 120 2.0 5.0 0.00 0.00 0.00 70 1011.2
20260510091512 64 103 5.0 7.0 0.00 0.00 0.00 68 1011.2
20260510091011 64 87 2.0 3.0 0.00 0.00 0.00 71 1011.3
20260510090511 63 67 3.0 5.0 0.00 0.00 0.00 72 1011.4
20260510090011 63 96 5.0 9.0 0.00 0.00 0.00 70 1011.5
20260510085511 62 111 1.0 8.0 0.00 0.00 0.00 70 1011.5
20260510085012 62 135 3.0 9.0 0.00 0.00 0.00 69 1011.5
20260510084511 62 68 1.0 5.0 0.00 0.00 0.00 72 1011.5
20260510084012 62 68 3.0 6.0 0.00 0.00 0.00 71 1011.6
20260510083011 61 60 2.0 3.0 0.00 0.00 0.00 71 1011.6
20260510082015 60 43 3.0 5.0 0.00 0.00 0.00 72 1011.6
20260510081511 61 42 3.0 3.0 0.00 0.00 0.00 73 1011.7
20260510081012 60 99 3.0 6.0 0.00 0.00 0.00 72 1011.7
20260510080512 60 125 3.0 7.0 0.00 0.00 0.00 73 1011.8
20260510080011 60 133 2.0 6.0 0.00 0.00 0.00 72 1011.9
20260510075511 59 110 2.0 6.0 0.00 0.00 0.00 73 1011.8
20260510075012 59 91 2.0 6.0 0.00 0.00 0.00 74 1011.8
20260510074511 59 50 3.0 6.0 0.00 0.00 0.00 76 1011.8
20260510074012 58 144 2.0 3.0 0.00 0.00 0.00 76 1012.0
20260510073511 57 95 2.0 3.0 0.00 0.00 0.00 75 1012.0
20260510073011 57 151 2.0 6.0 0.00 0.00 0.00 75 1012.0
20260510072511 57 139 3.0 6.0 0.00 0.00 0.00 77 1012.0
20260510072013 56 163 2.0 3.0 0.00 0.00 0.00 75 1012.0
20260510071509 57 116 4.0 6.0 0.00 0.00 0.00 77 1012.1
20260510071009 57 147 3.0 6.0 0.00 0.00 0.00 76 1012.2
20260510070509 57 90 3.0 6.0 0.00 0.00 0.00 77 1012.2
20260510070009 56 40 3.0 5.0 0.00 0.00 0.00 76 1012.3
20260510065510 56 65 3.0 5.0 0.00 0.00 0.00 76 1012.2
20260510065009 56 56 2.0 3.0 0.00 0.00 0.00 78 1012.3
20260510064509 55 86 1.0 3.0 0.00 0.00 0.00 77 1012.3
20260510064009 55 80 3.0 7.0 0.00 0.00 0.00 78 1012.3
20260510063510 55 96 2.0 3.0 0.00 0.00 0.00 79 1012.3
20260510063009 54 86 1.0 3.0 0.00 0.00 0.00 80 1012.3
20260510062510 54 88 3.0 3.0 0.00 0.00 0.00 80 1012.2
20260510061509 53 73 3.0 6.0 0.00 0.00 0.00 80 1012.3
20260510061010 53 96 3.0 6.0 0.00 0.00 0.00 80 1012.4
20260510060509 53 100 2.0 6.0 0.00 0.00 0.00 82 1012.4
20260510060009 53 63 2.0 3.0 0.00 0.00 0.00 81 1012.3
20260510055510 52 107 2.0 5.0 0.00 0.00 0.00 82 1012.4
20260510055009 52 73 1.0 3.0 0.00 0.00 0.00 82 1012.4
20260510054509 52 92 2.0 6.0 0.00 0.00 0.00 83 1012.5
20260510054009 52 70 2.0 3.0 0.00 0.00 0.00 83 1012.5
20260510053509 51 113 0.0 2.0 0.00 0.00 0.00 83 1012.6
20260510053009 51 113 0.0 2.0 0.00 0.00 0.00 83 1012.6
20260510052508 51 113 1.0 3.0 0.00 0.00 0.00 84 1012.5
20260510051509 50 137 0.0 2.0 0.00 0.00 0.00 84 1012.7
20260510051009 50 137 1.0 1.0 0.00 0.00 0.00 83 1012.8
20260510050509 50 112 1.0 2.0 0.00 0.00 0.00 83 1012.7
20260510050009 51 46 0.0 2.0 0.00 0.00 0.00 83 1012.7
20260510045009 51 65 2.0 3.0 0.00 0.00 0.00 82 1012.8
20260510044509 50 76 1.0 2.0 0.00 0.00 0.00 83 1012.8
20260510044009 50 77 0.0 1.0 0.00 0.00 0.00 83 1012.8
20260510043509 50 77 1.0 2.0 0.00 0.00 0.00 84 1012.8
20260510042009 49 77 0.0 1.0 0.00 0.00 0.00 85 1012.8
20260510041509 49 77 0.0 2.0 0.00 0.00 0.00 85 1012.8
20260510040510 49 78 0.0 2.0 0.00 0.00 0.00 85 1013.0
20260510040009 49 78 1.0 2.0 0.00 0.00 0.00 85 1013.0
20260510035510 49 78 0.0 2.0 0.00 0.00 0.00 85 1013.1
20260510035009 49 78 0.0 1.0 0.00 0.00 0.00 86 1013.0
20260510034509 49 78 1.0 2.0 0.00 0.00 0.00 85 1013.0
20260510034009 49 78 0.0 2.0 0.00 0.00 0.00 85 1013.1
20260510033509 49 78 0.0 2.0 0.00 0.00 0.00 84 1013.1
20260510033009 49 78 0.0 1.0 0.00 0.00 0.00 84 1013.1
20260510032509 49 78 1.0 2.0 0.00 0.00 0.00 84 1013.1
20260510032008 49 78 0.0 2.0 0.00 0.00 0.00 85 1013.1
20260510031509 49 79 1.0 1.0 0.00 0.00 0.00 84 1013.1
20260510030509 50 79 1.0 2.0 0.00 0.00 0.00 83 1013.3
20260510030009 50 79 1.0 1.0 0.00 0.00 0.00 83 1013.3
20260510025510 50 78 1.0 3.0 0.00 0.00 0.00 83 1013.3
20260510024509 50 69 1.0 2.0 0.00 0.00 0.00 83 1013.4
20260510023508 50 71 1.0 2.0 0.00 0.00 0.00 83 1013.4
20260510022508 50 69 1.0 3.0 0.00 0.00 0.00 83 1013.4
20260510022009 50 69 2.0 3.0 0.00 0.00 0.00 83 1013.4
20260510021009 50 72 1.0 2.0 0.00 0.00 0.00 83 1013.4
20260510020509 50 72 0.0 1.0 0.00 0.00 0.00 84 1013.5
20260510020009 50 72 0.0 2.0 0.00 0.00 0.00 83 1013.5
20260510015009 50 72 0.0 2.0 0.00 0.00 0.00 82 1013.5
20260510014509 51 72 1.0 3.0 0.00 0.00 0.00 82 1013.6
20260510014009 51 49 1.0 3.0 0.00 0.00 0.00 82 1013.6
20260510013509 51 23 1.0 3.0 0.00 0.00 0.00 82 1013.7
20260510013012 51 11 2.0 3.0 0.00 0.00 0.00 82 1013.7
20260510012509 51 52 1.0 3.0 0.00 0.00 0.00 82 1013.7
20260510012008 51 59 1.0 3.0 0.00 0.00 0.00 82 1013.8
20260510011509 51 75 0.0 2.0 0.00 0.00 0.00 82 1013.9
20260510011009 51 75 0.0 2.0 0.00 0.00 0.00 81 1013.9
20260510010009 51 75 0.0 2.0 0.00 0.00 0.00 81 1013.8
20260510005510 51 76 1.0 3.0 0.00 0.00 0.00 81 1013.9
20260510005009 51 80 1.0 2.0 0.00 0.00 0.00 80 1013.9
20260510004509 52 81 1.0 2.0 0.00 0.00 0.00 80 1013.9
20260510003509 52 81 1.0 3.0 0.00 0.00 0.00 79 1014.0
20260510002509 53 88 1.0 3.0 0.00 0.00 0.00 78 1014.2
20260510002010 53 104 1.0 1.0 0.00 0.00 0.00 78 1014.3
20260510001509 53 104 2.0 3.0 0.00 0.00 0.00 78 1014.4
20260510000509 53 115 2.0 3.0 0.00 0.00 0.00 77 1014.6
20260510000009 53 84 3.0 9.0 0.00 0.00 0.00 77 1014.6
20260509235509 54 86 1.0 3.0 0.00 0.00 0.00 77 1014.6
20260509235009 53 82 3.0 8.0 0.00 0.00 0.00 77 1014.6
20260509234009 54 140 1.0 3.0 0.00 0.00 0.00 75 1014.6
20260509233509 54 118 1.0 3.0 0.00 0.00 0.00 76 1014.7
20260509233009 54 132 1.0 2.0 0.00 0.00 0.00 76 1014.7
20260509232509 54 124 1.0 2.0 0.00 0.00 0.00 76 1014.7
20260509232008 54 128 1.0 2.0 0.00 0.00 0.00 76 1014.7
20260509231509 54 359 0.0 2.0 0.00 0.00 0.00 77 1014.7
20260509231009 54 348 0.0 1.0 0.00 0.00 0.00 76 1014.7
20260509230509 55 348 0.0 1.0 0.00 0.00 0.00 75 1014.7
20260509230009 55 348 1.0 2.0 0.00 0.00 0.00 75 1014.8
20260509225510 55 348 0.0 0.0 0.00 0.00 0.00 75 1014.8
20260509225008 55 348 0.0 2.0 0.00 0.00 0.00 75 1014.9
20260509224509 54 348 0.0 2.0 0.00 0.00 0.00 77 1015.0
20260509224009 55 348 0.0 1.0 0.00 0.00 0.00 76 1015.0
20260509222509 55 348 0.0 1.0 0.00 0.00 0.00 76 1015.1
20260509222009 56 348 1.0 3.0 0.00 0.00 0.00 74 1015.1
20260509221009 55 5 1.0 3.0 0.00 0.00 0.00 76 1015.1
20260509220509 56 5 1.0 5.0 0.00 0.00 0.00 75 1015.1
20260509220009 54 338 1.0 3.0 0.00 0.00 0.00 78 1015.3
20260509215509 54 338 1.0 2.0 0.00 0.00 0.00 78 1015.3
20260509214009 54 330 1.0 2.0 0.00 0.00 0.00 78 1015.2
20260509213509 54 326 0.0 2.0 0.00 0.00 0.00 78 1015.1
20260509213009 54 321 2.0 3.0 0.00 0.00 0.00 79 1015.1
20260509212509 54 318 1.0 2.0 0.00 0.00 0.00 79 1015.1
20260509212009 54 317 0.0 2.0 0.00 0.00 0.00 79 1015.2
20260509211508 54 317 0.0 1.0 0.00 0.00 0.00 79 1015.3
20260509211009 54 317 1.0 2.0 0.00 0.00 0.00 77 1015.2
20260509210508 55 317 2.0 3.0 0.00 0.00 0.00 76 1015.3
20260509210009 55 331 0.0 2.0 0.00 0.00 0.00 75 1015.3
20260509205509 56 331 1.0 2.0 0.00 0.00 0.00 74 1015.3
20260509205008 56 331 1.0 2.0 0.00 0.00 0.00 73 1015.2
20260509204509 56 337 1.0 2.0 0.00 0.00 0.00 73 1015.2
20260509204009 57 355 1.0 2.0 0.00 0.00 0.00 73 1015.3
20260509203509 57 355 2.0 2.0 0.00 0.00 0.00 73 1015.3
20260509203009 56 17 1.0 2.0 0.00 0.00 0.00 74 1015.3
20260509202509 56 17 0.0 1.0 0.00 0.00 0.00 73 1015.3
20260509201009 57 25 0.0 2.0 0.00 0.00 0.00 73 1015.2
20260509195510 58 25 0.0 1.0 0.00 0.00 0.00 72 1015.4
20260509195008 58 23 1.0 2.0 0.00 0.00 0.00 72 1015.4
20260509194509 58 23 0.0 1.0 0.00 0.00 0.00 72 1015.3
20260509194009 57 23 0.0 0.0 0.00 0.00 0.00 75 1015.2
20260509193509 56 23 0.0 0.0 0.00 0.00 0.00 75 1015.1
20260509193009 56 23 1.0 1.0 0.00 0.00 0.00 77 1015.2
20260509192508 56 23 0.0 0.0 0.00 0.00 0.00 77 1015.2
20260509191508 56 23 0.0 2.0 0.00 0.00 0.00 76 1015.2
20260509191009 57 23 0.0 1.0 0.00 0.00 0.00 74 1015.1
20260509190008 58 23 1.0 2.0 0.00 0.00 0.00 72 1015.0